Voltar ao catálogo

CZ-6A DEB

AtivoPO
NORAD 61096·DEBRIS·🇨🇳 China

Lançado Aug 6, 2024 de Taiyuan Satellite Launch Center

Loading…

Próximas Passagens (próximas 24 horas)

TLE

AtualizadoSource: Space-Track

Época: Sep 14, 2026, 06:50 UTC

1 61096U 24140NN  26257.28512555  .00002061  00000-0  42495-3 0  9994
2 61096  89.0491 264.6391 0095206 321.6604  37.7863 14.57290981108548

Acompanhe CZ-6A DEB em tempo real com AllMySat

Download on the App Store